This demonstration page uses our WeatherBlox Daily Observations layout. Learn more.

Left ArrowRight Arrow

Hourly Observations for June 10, 2021

Temp ( °F °C ) Dew Point ( °F °C ) Humidity (%) Winds ( mph kmh ) Pressure ( in mb ) Visibility ( mi km ) Precip ( " mm )
12:56 am 00:56 Mostly Cloudy 77 25 67 19.4 71 71 undefined N/A 29.94 1014 10 16 0.00 0.00
1:56 am 01:56 Mostly Clear 75 23.9 66 18.9 74 74 SE 8 13 29.93 1014 10 16 0.00 0.00
2:56 am 02:56 Mostly Cloudy 74 23.3 66 18.9 76 76 SSE 7 11 29.93 1014 10 16 0.00 0.00
3:56 am 03:56 Partly Cloudy 75 23.9 67 19.4 76 76 SSE 9 15 29.91 1013 10 16 0.00 0.00
4:56 am 04:56 Cloudy 74 23.3 67 19.4 79 79 S 9 15 29.91 1013 10 16 0.00 0.00
5:56 am 05:56 Clear 73 22.8 68 20 84 84 S 10 17 29.91 1013 10 16 0.00 0.00
6:56 am 06:56 Sunny 74 23.3 70 21.1 88 88 S 8 13 29.90 1012 10 16 0.00 0.00
7:56 am 07:56 Sunny 77 25 72 22.2 85 85 S 10 17 29.89 1012 10 16 0.00 0.00
8:56 am 08:56 Sunny 81 27.2 74 23.3 79 79 SSE 12 19 29.88 1012 10 16 0.00 0.00
9:56 am 09:56 Partly Cloudy 84 28.9 76 24.4 77 77 S 10 17 29.87 1011 10 16 0.00 0.00
10:15 am 10:15 Mostly Cloudy 84 29 75 24 74 74 S 12 19 29.80 1009 10 16 0.00 0.00
10:56 am 10:56 Mostly Cloudy 87 30.6 76 24.4 70 70 S 17 28 29.86 1011 10 16 0.00 0.00
11:15 am 11:15 Mostly Cloudy 88 31 75 24 66 66 S 16 26 29.77 1008 10 16 0.00 0.00
11:35 am 11:35 Mostly Cloudy 88 31 75 24 66 66 S 14 22 29.77 1008 10 16 0.00 0.00
11:56 am 11:56 Mostly Cloudy 88 31.1 76 24.4 68 68 S 17 28 29.84 1011 10 16 0.00 0.00
12:56 pm 12:56 Mostly Sunny 90 32.2 76 24.4 63 63 S 21 33 29.82 1010 10 16 0.00 0.00
1:56 pm 13:56 Partly Cloudy 92 33.3 75 23.9 58 58 S 21 33 29.79 1009 10 16 0.00 0.00
2:56 pm 14:56 Mostly Sunny 93 33.9 73 22.8 52 52 SSE 17 28 29.78 1008 10 16 0.00 0.00
3:56 pm 15:56 Partly Cloudy 93 33.9 72 22.2 50 50 SSE 20 31 29.76 1008 10 16 0.00 0.00
4:56 pm 16:56 Mostly Cloudy 93 33.9 72 22.2 50 50 SSE 20 31 29.74 1007 10 16 0.00 0.00
5:56 pm 17:56 Sunny 93 33.9 71 21.7 49 49 S 23 37 29.72 1007 10 16 0.00 0.00
6:56 pm 18:56 Sunny 92 33.3 71 21.7 51 51 SSE 18 30 29.70 1006 10 16 0.00 0.00
7:56 pm 19:56 Sunny 89 31.7 70 21.1 53 53 S 18 30 29.71 1006 10 16 0.00 0.00
8:56 pm 20:56 Sunny 87 30.6 70 21.1 57 57 SSE 18 30 29.70 1006 10 16 0.00 0.00
9:56 pm 21:56 Clear 84 28.9 70 21.1 63 63 SSE 16 26 29.70 1006 10 16 0.00 0.00
10:56 pm 22:56 Clear 82 27.8 70 21.1 67 67 S 14 22 29.72 1006 10 16 0.00 0.00
11:56 pm 23:56 Clear 80 26.7 70 21.1 71 71 SSE 13 20 29.72 1006 10 16 0.00 0.00

Powered by AerisWeather